Location: Bednik
(45.3500°N, 16.3833°E)
Time: 10:41:08
(UTC+00:00)

ATLAS 5 CENTAUR R/B - Pass Details

Date: 08 August 2020
Orbit: 267 x 14298 km, 60.7° (Epoch: 20 September)

Event Time Altitude Azimuth Distance (km) Brightness Sun altitude
Rises 21:03:44 0° 326° (NW) 2,108 6.3 -23.4°
Reaches altitude 10° 21:05:08 10° 337° (NNW) 1,484 5.1 -23.5°
Maximum altitude 21:07:51 37° 49° (NE) 1,008 3.1 -23.8°
Enters shadow 21:08:57 32° 80° (E) 1,290 3.5 -23.9°
